Home   Weather   Titisee-Neustadt   Past weeks

Flag for Germany Past Weather in Titisee-Neustadt, Baden-Württemberg, Germany — Yesterday and Last 2 Weeks

Now
27 °F

Sunny.


Feels Like: 22 °F
Forecast: 16 / 20 °F
Wind: 5 mph from Northeast

Location: Freiburg

Current Time: Jan 17, 2017 at 2:20:06 pm

Latest Report: Jan 17, 2017 at 12:00 pm


Visibility: 19 mi

Pressure: 30.48 "Hg (27.51 "Hg at 813m altitude)

Humidity: 65%

Dew Point: 17 °F

Location of Titisee-NeustadtLocation

Past Weather in Titisee-Neustadt — Graph

°F

Titisee-Neustadt Temperature Yesterday

Maximum temperature yesterday: 32 °F (at 2:00 pm)
Minimum temperature yesterday: 22 °F (at 12:00 am)
Average temperature yesterday: 27 °F

High & Low Weather Summary for the Past Weeks

 TemperatureHumidityPressure
High49 °F (Jan 13, 12:00 am)100% (Jan 2, 6:00 pm)30.76 "Hg (Jan 2, 6:00 pm)
Low6 °F (Jan 7, 2:00 am)61% (Jan 6, 3:00 pm)29.44 "Hg (Jan 12, 11:00 pm)
Average30 °F88%30.25 "Hg
* Reported Jan 2 12:00 pm — Jan 17 12:00 pm, Titisee-Neustadt, Weather by CustomWeather, © 2017

Note: Actual official high and low records may vary slightly from our data, if they occured in-between our weather recording intervals... More about our weather records

Advertising

Titisee-Neustadt Weather History for the Previous 24 Hours

Scroll right to see more
 ConditionsComfort  
Time TempWeatherWind HumidityBarometerVisibility
12:00 pm
Tue, Jan 17
27 °FSunny.5 mph65%30.48 "Hg19 mi
11:00 am27 °FSunny.3 mph65%30.49 "Hg19 mi
9:00 am19 °FScattered clouds.1 mph89%30.48 "Hg7 mi
8:00 am22 °FPassing clouds.1 mph87%30.46 "Hg9 mi
6:00 am19 °FPassing clouds.1 mph93%30.44 "Hg14 mi
5:00 am17 °FIce fog.1 mph93%30.44 "Hg9 mi
3:00 am24 °FOvercast.3 mph84%30.41 "Hg19 mi
2:00 am25 °FOvercast.1 mph80%30.40 "Hg12 mi
12:00 am26 °FOvercast.3 mph75%30.38 "Hg25 mi
11:00 pm
Mon, Jan 16
26 °FOvercast.3 mph75%30.38 "Hg28 mi
9:00 pm28 °FOvercast.5 mph74%30.35 "Hg28 mi
8:00 pm28 °FOvercast.2 mph77%30.34 "Hg15 mi
6:00 pm29 °FOvercast.1 mph85%30.31 "Hg12 mi
5:00 pm30 °FOvercast.2 mph80%30.29 "Hg8 mi
3:00 pm31 °FIce fog.3 mph76%30.27 "Hg22 mi
2:00 pm32 °FScattered clouds.3 mph68%30.27 "Hg14 mi
Weather by CustomWeather, © 2017

See weather overviewHow to use our weather pages